Weather History for Hazlehurst, GA

Change the Weather History Date:

Friday, January 4, 2013

  Actual Average Record
Temperature  
Mean Temperature 44 °F -  
Max Temperature 75 °F 60 °F 75 °F (2013)
Min Temperature 34 °F 36 °F 30 °F (2014)
Degree Days  
Heating Degree Days 22    
Moisture  
Dew Point 40 °F    
Average Humidity 92    
Maximum Humidity 100    
Minimum Humidity 64    
Precipitation  
Precipitation 0.00 in - - ()
Sea Level Pressure  
Sea Level Pressure 30.32 in    
Wind  
Wind Speed 2 mph (North)    
Max Wind Speed 7 mph    
Max Gust Speed -    
Visibility 8 miles    
Events Fog    
Averages and records for this station are not official NWS values.
T = Trace of Precipitation, MM = Missing Value Source: NWS Daily Summary

Daily Weather History Graph

Daily Weather History Graph

Search for Another Location

Airport:

Trip Planner

Search our weather history database for the weather conditions in past years. The results will help you decide how hot, cold, wet, or windy it might be!

Date:

Astronomy

Jan. 04, 2013 Rise Set
Actual Time 7:31 AM EST 5:40 PM EST
Civil Twilight 7:04 AM EST 6:06 PM EST
Nautical Twilight 6:34 AM EST 6:37 PM EST
Astronomical Twilight 6:04 AM EST 7:06 PM EST
Moon No Moon Rise 11:41 AM EST (1/4)
Length of Visible Light 11h 02m
Length of Day
10h 08m
Waning Gibbous, 55% of the Moon is Illuminated
Jan 4
Waning Gibbous
Jan 4
Last Quarter
Jan 11
New
Jan 18
First Quarter
Jan 26
Full

Hourly Weather History & Observations

Time (EST) Temp. Windchill Dew Point Humidity Pressure Visibility Wind Dir Wind Speed Gust Speed Precip Events Conditions
12:15 AM - - - N/A% 30.27 in 0.5 mi NNW 3.5 mph - N/A Fog Fog
12:35 AM - - - N/A% 30.27 in 4.0 mi Calm Calm - N/A   Clear
12:55 AM 38.3 °F 35.9 °F 38.3 °F 100% 30.28 in 5.0 mi WNW 3.5 mph - N/A   Clear
1:15 AM - - - N/A% 30.29 in 10.0 mi NW 3.5 mph - N/A   Clear
1:35 AM 37.6 °F 34.0 °F 37.8 °F 100% 30.28 in 10.0 mi NNW 4.6 mph - N/A   Mostly Cloudy
1:55 AM 37.0 °F 34.5 °F 37.2 °F 100% 30.29 in 10.0 mi North 3.5 mph - N/A   Mostly Cloudy
2:15 AM 36.7 °F - 36.9 °F 100% 30.29 in 10.0 mi Calm Calm - N/A   Overcast
2:35 AM - - - N/A% 30.28 in 10.0 mi North 3.5 mph - N/A   Mostly Cloudy
2:55 AM 35.8 °F 33.0 °F 36.0 °F 100% 30.29 in 10.0 mi North 3.5 mph - N/A   Mostly Cloudy
3:15 AM 35.6 °F - 35.8 °F 100% 30.29 in 10.0 mi Calm Calm - N/A   Scattered Clouds
3:55 AM - - - N/A% 30.28 in 7.0 mi North 3.5 mph - N/A   Scattered Clouds
6:35 AM 35.1 °F - 35.2 °F 100% 30.30 in 5.0 mi Calm Calm - N/A   Clear
6:55 AM 34.9 °F - 35.1 °F 100% 30.30 in 4.0 mi Calm Calm - N/A   Clear
7:15 AM 34.9 °F 32.0 °F 35.1 °F 100% 30.32 in 4.0 mi NNW 3.5 mph - N/A   Scattered Clouds
7:35 AM 34.7 °F - 34.9 °F 100% 30.32 in 4.0 mi Calm Calm - N/A   Clear
7:55 AM 34.7 °F - 34.9 °F 100% 30.32 in 4.0 mi Calm Calm - N/A   Clear
8:15 AM 34.7 °F 31.8 °F 34.9 °F 100% 30.32 in 4.0 mi North 3.5 mph - N/A   Clear
8:35 AM 35.1 °F - 35.2 °F 100% 30.33 in 5.0 mi Calm Calm - N/A   Scattered Clouds
8:55 AM 35.8 °F - 36.0 °F 100% 30.34 in 5.0 mi Calm Calm - N/A   Mostly Cloudy
9:15 AM 36.5 °F - 36.7 °F 100% 30.35 in 5.0 mi Calm Calm - N/A   Overcast
9:35 AM 37.6 °F - 37.8 °F 100% 30.35 in 5.0 mi Calm Calm - N/A   Overcast
9:55 AM 39.6 °F 37.4 °F 39.7 °F 100% 30.35 in 5.0 mi North 3.5 mph - N/A   Overcast
10:15 AM 40.5 °F - 40.6 °F 100% 30.36 in 7.0 mi Calm Calm - N/A   Overcast
10:35 AM 41.2 °F 39.2 °F 41.4 °F 100% 30.36 in 7.0 mi NE 3.5 mph - N/A   Overcast
10:55 AM 41.5 °F 39.6 °F 41.7 °F 100% 30.35 in 7.0 mi ENE 3.5 mph - N/A   Overcast
11:15 AM 41.7 °F 39.8 °F 41.5 °F 99% 30.36 in 10.0 mi ENE 3.5 mph - N/A   Overcast
11:35 AM 42.4 °F 39.6 °F 41.7 °F 97% 30.36 in 10.0 mi North 4.6 mph - N/A   Overcast
11:55 AM 42.8 °F 41.1 °F 41.7 °F 96% 30.35 in 10.0 mi NNW 3.5 mph - N/A   Overcast
12:15 PM 43.3 °F 41.7 °F 41.9 °F 95% 30.34 in 10.0 mi NNE 3.5 mph - N/A   Overcast
12:35 PM 43.9 °F 40.5 °F 42.1 °F 93% 30.33 in 10.0 mi North 5.8 mph - N/A   Overcast
12:55 PM 44.8 °F 42.4 °F 42.3 °F 91% 30.33 in 10.0 mi North 4.6 mph - N/A   Overcast
1:15 PM 45.7 °F 42.0 °F 42.4 °F 88% 30.32 in 10.0 mi NNW 6.9 mph - N/A   Mostly Cloudy
1:35 PM 47.5 °F - 42.8 °F 84% 30.32 in 10.0 mi NNW 3.5 mph - N/A   Scattered Clouds
1:55 PM 48.7 °F - 43.2 °F 81% 30.31 in 10.0 mi North 5.8 mph - N/A   Clear
2:15 PM 49.8 °F - 43.7 °F 79% 30.30 in 10.0 mi Calm Calm - N/A   Clear
2:35 PM 51.4 °F - 43.9 °F 75% 30.30 in 10.0 mi NW 3.5 mph - N/A   Clear
2:55 PM 52.2 °F - 44.2 °F 74% 30.29 in 10.0 mi NNE 3.5 mph - N/A   Clear
3:15 PM 52.9 °F - 43.5 °F 71% 30.30 in 10.0 mi Calm Calm - N/A   Clear
3:35 PM 53.4 °F - 43.2 °F 68% 30.29 in 10.0 mi NNW 5.8 mph - N/A   Clear
3:55 PM 53.4 °F - 42.3 °F 66% 30.29 in 10.0 mi North 3.5 mph - N/A   Clear
4:15 PM 53.1 °F - 41.9 °F 66% 30.30 in 10.0 mi North 3.5 mph - N/A   Clear
4:35 PM 52.9 °F - 41.0 °F 64% 30.29 in 10.0 mi NNW 3.5 mph - N/A   Clear
4:55 PM 52.3 °F - 40.5 °F 64% 30.30 in 10.0 mi NNW 4.6 mph - N/A   Clear
5:15 PM 51.3 °F - 40.8 °F 67% 30.30 in 10.0 mi NNW 3.5 mph - N/A   Clear
5:35 PM 49.8 °F - 41.4 °F 73% 30.30 in 10.0 mi Calm Calm - N/A   Clear
5:55 PM 48.4 °F - 41.7 °F 78% 30.31 in 10.0 mi Calm Calm - N/A   Clear
6:15 PM 47.1 °F - 41.7 °F 81% 30.32 in 10.0 mi Calm Calm - N/A   Clear
6:35 PM 44.6 °F - 42.3 °F 91% 30.31 in 10.0 mi Calm Calm - N/A   Clear
6:55 PM 43.0 °F - 42.3 °F 97% 30.32 in 10.0 mi Calm Calm - N/A   Clear
7:15 PM 42.4 °F - 42.1 °F 99% 30.33 in 10.0 mi Calm Calm - N/A   Clear
7:35 PM 41.7 °F - 41.7 °F 100% 30.33 in 10.0 mi Calm Calm - N/A   Clear
7:55 PM 41.2 °F - 41.2 °F 100% 30.35 in 10.0 mi Calm Calm - N/A   Clear
8:15 PM 41.0 °F - 41.0 °F 100% 30.34 in 10.0 mi Calm Calm - N/A   Clear
8:35 PM 40.6 °F - 40.6 °F 100% 30.34 in 10.0 mi Calm Calm - N/A   Clear
8:55 PM 40.5 °F - 40.6 °F 100% 30.34 in 10.0 mi Calm Calm - N/A   Clear
9:15 PM 40.1 °F - 40.3 °F 100% 30.35 in 7.0 mi Calm Calm - N/A   Clear
9:35 PM - - - N/A% 30.34 in 5.0 mi Calm Calm - N/A   Clear
9:55 PM 39.4 °F - 39.6 °F 100% 30.34 in 7.0 mi Calm Calm - N/A   Clear
10:15 PM 39.2 °F - 39.4 °F 100% 30.35 in 5.0 mi Calm Calm - N/A   Clear
10:35 PM 38.7 °F - 38.7 °F 100% 30.35 in 2.5 mi Calm Calm - N/A   Clear
10:55 PM 38.3 °F - 38.3 °F 100% 30.35 in 7.0 mi Calm Calm - N/A   Clear
11:15 PM 39.2 °F 35.9 °F 39.4 °F 100% 30.35 in 10.0 mi NW 4.6 mph - N/A   Clear
11:35 PM 41.0 °F 37.1 °F 40.1 °F 97% 30.35 in 10.0 mi NNW 5.8 mph - N/A   Clear
11:55 PM 41.9 °F - 38.5 °F 88% 30.34 in 10.0 mi Calm Calm - N/A   Clear